Location: Siratepeler Tepesi
(39.1042°N, 32.0781°E)
Time: 04:54:42
(UTC+00:00)

Cosmos 1339 Rocket - Pass Details

Date: 11 April 2026
Orbit: 941 x 1006 km, 82.9° (Epoch: 9 May)

Event Time Altitude Azimuth Distance (km) Brightness Sun altitude
Rises 17:39:29 0° 356° (N) 3,705 7.9 -14.6°
Reaches altitude 10° 17:42:04 10° 360° (N) 2,744 7.2 -15.0°
Maximum altitude 17:48:17 62° 80° (E) 1,087 4.5 -16.1°
Enters shadow 17:53:20 15° 159° (SSE) 2,309 6.0 -17.0°
